Tracking 34346 objects as of 10-Jun-2026
HD Live streaming from Space Station
objects crossing your sky now

COSMOS 2023 (GLONASS)

Track COSMOS 2023 (GLONASS) now!
COSMOS 2023 (GLONASS) is classified as:


NORAD ID: 20025
Int'l Code: 1989-039B
Perigee: 19,085.5 km
Apogee: 19,188.2 km
Inclination: 65.0 °
Period: 675.7 minutes
Semi major axis: 25507 km
RCS: 1.297 m2 (large)
Launch date: May 31, 1989
Source: Commonwealth of Independent States (former USSR) (CIS)
Launch site: TYURATAM MISSILE AND SPACE COMPLEX (TTMTR)
Your satellite tracking list
Your tracking list is empty




NASA's NSSDC Master Catalog

Two Line Element Set (TLE):
1 20025U 89039B   26161.36131446 -.00000038  00000-0  00000-0 0  9994
2 20025  64.9655 311.4164 0020134 196.2685 342.4484  2.13104232288110
Source of the keplerian elements: AFSPC